TimePDT,TemperatureF,Dew PointF,Humidity,Sea Level PressureIn,VisibilityMPH,Wind Direction,Wind SpeedMPH,Gust SpeedMPH,PrecipitationIn,Events,Conditions,WindDirDegrees,DateUTC
12:52 AM,28.0,3.9,36,30.19,-9999.0,East,3.5,-,N/A,,Unknown,100,2012-10-07 07:52:00
1:52 AM,27.0,3.9,37,30.20,-9999.0,NNE,3.5,-,N/A,,Unknown,30,2012-10-07 08:52:00
2:52 AM,24.1,1.9,38,30.19,-9999.0,Calm,Calm,-,N/A,,Unknown,0,2012-10-07 09:52:00
3:52 AM,21.9,1.0,40,30.19,-9999.0,SSW,3.5,-,N/A,,Unknown,200,2012-10-07 10:52:00
4:52 AM,19.9,1.0,44,30.20,-9999.0,South,3.5,-,N/A,,Unknown,170,2012-10-07 11:52:00
5:52 AM,23.0,3.0,42,30.20,-9999.0,SE,6.9,-,N/A,,Unknown,140,2012-10-07 12:52:00
6:52 AM,19.9,1.9,46,30.23,-9999.0,SE,3.5,-,N/A,,Unknown,140,2012-10-07 13:52:00
7:52 AM,28.0,3.9,36,30.23,-9999.0,Calm,Calm,-,N/A,,Unknown,0,2012-10-07 14:52:00
8:52 AM,37.9,8.1,29,30.22,-9999.0,NNE,4.6,-,N/A,,Unknown,20,2012-10-07 15:52:00
9:52 AM,43.0,9.0,25,30.21,-9999.0,NNE,5.8,-,N/A,,Unknown,20,2012-10-07 16:52:00
10:52 AM,51.1,10.9,20,30.19,-9999.0,NE,5.8,-,N/A,,Unknown,50,2012-10-07 17:52:00
11:52 AM,54.0,10.0,17,30.18,-9999.0,Variable,4.6,-,N/A,,Unknown,0,2012-10-07 18:52:00
12:52 PM,59.0,7.0,13,30.14,-9999.0,NNE,3.5,-,N/A,,Unknown,20,2012-10-07 19:52:00
1:52 PM,61.0,3.9,10,30.12,-9999.0,Variable,3.5,-,N/A,,Unknown,0,2012-10-07 20:52:00
2:52 PM,64.0,3.9,9,30.09,-9999.0,Variable,5.8,-,N/A,,Unknown,0,2012-10-07 21:52:00
3:52 PM,64.9,3.9,9,30.07,-9999.0,NNE,4.6,-,N/A,,Unknown,30,2012-10-07 22:52:00
4:52 PM,66.0,3.0,8,30.06,-9999.0,North,6.9,-,N/A,,Unknown,10,2012-10-07 23:52:00
5:52 PM,63.0,3.9,10,30.05,-9999.0,North,5.8,-,N/A,,Unknown,360,2012-10-08 00:52:00
6:52 PM,55.0,3.0,12,30.07,-9999.0,NNE,5.8,-,N/A,,Unknown,20,2012-10-08 01:52:00
7:52 PM,46.9,1.0,15,30.08,-9999.0,NNE,9.2,-,N/A,,Unknown,30,2012-10-08 02:52:00
8:52 PM,41.0,3.0,21,30.08,-9999.0,North,8.1,-,N/A,,Unknown,10,2012-10-08 03:52:00
9:52 PM,43.0,5.0,21,30.06,-9999.0,NNE,6.9,-,N/A,,Unknown,20,2012-10-08 04:52:00
10:52 PM,37.0,5.0,26,30.05,-9999.0,East,4.6,-,N/A,,Unknown,80,2012-10-08 05:52:00
11:52 PM,35.1,1.9,25,30.05,-9999.0,SSE,9.2,-,N/A,,Unknown,150,2012-10-08 06:52:00